Year,Month,Day,Hour,Minute,Value (Times are PST for temperature in C)
2018,07,17,00,00,23.80
2018,07,17,00,01,23.70
2018,07,17,00,02,23.70
2018,07,17,00,03,23.70
2018,07,17,00,04,23.70
2018,07,17,00,05,23.60
2018,07,17,00,06,23.60
2018,07,17,00,07,23.60
2018,07,17,00,08,23.50
2018,07,17,00,09,23.50
2018,07,17,00,10,23.50
2018,07,17,00,11,23.40
2018,07,17,00,12,23.40
2018,07,17,00,13,23.40
2018,07,17,00,14,23.30
2018,07,17,00,15,23.30
2018,07,17,00,16,23.30
2018,07,17,00,17,23.20
2018,07,17,00,18,23.20
2018,07,17,00,19,23.20
2018,07,17,00,20,23.10
2018,07,17,00,21,23.10
2018,07,17,00,22,23.10
2018,07,17,00,23,23.00
2018,07,17,00,24,23.00
2018,07,17,00,25,22.90
2018,07,17,00,26,22.90
2018,07,17,00,27,22.90
2018,07,17,00,28,22.80
2018,07,17,00,29,22.80
2018,07,17,00,30,22.80
2018,07,17,00,31,22.70
2018,07,17,00,32,22.70
2018,07,17,00,33,22.70
2018,07,17,00,34,22.70
2018,07,17,00,35,22.60
2018,07,17,00,36,22.60
2018,07,17,00,37,22.60
2018,07,17,00,38,22.60
2018,07,17,00,39,22.60
2018,07,17,00,40,22.60
2018,07,17,00,41,22.50
2018,07,17,00,42,22.50
2018,07,17,00,43,22.50
2018,07,17,00,44,22.40
2018,07,17,00,45,22.40
2018,07,17,00,46,22.40
2018,07,17,00,47,22.40
2018,07,17,00,48,22.30
2018,07,17,00,49,22.30
2018,07,17,00,50,22.30
2018,07,17,00,51,22.30
2018,07,17,00,52,22.20
2018,07,17,00,53,22.20
2018,07,17,00,54,22.20
2018,07,17,00,55,22.10
2018,07,17,00,56,22.10
2018,07,17,00,57,22.10
2018,07,17,00,58,22.10
2018,07,17,00,59,22.10
2018,07,17,01,00,22.00
2018,07,17,01,01,22.00
2018,07,17,01,02,21.90
2018,07,17,01,03,21.90
2018,07,17,01,04,21.90
2018,07,17,01,05,21.90
2018,07,17,01,06,21.80
2018,07,17,01,07,21.80
2018,07,17,01,08,21.80
2018,07,17,01,09,21.80
2018,07,17,01,10,21.80
2018,07,17,01,11,21.70
2018,07,17,01,12,21.70
2018,07,17,01,13,21.70
2018,07,17,01,14,21.70
2018,07,17,01,15,21.60
2018,07,17,01,16,21.60
2018,07,17,01,17,21.60
2018,07,17,01,18,21.60
2018,07,17,01,19,21.60
2018,07,17,01,20,21.60
2018,07,17,01,21,21.50
2018,07,17,01,22,21.50
2018,07,17,01,23,21.50
2018,07,17,01,24,21.40
2018,07,17,01,25,21.40
2018,07,17,01,26,21.40
2018,07,17,01,27,21.40
2018,07,17,01,28,21.40
2018,07,17,01,29,21.30
2018,07,17,01,30,21.30
2018,07,17,01,31,21.30
2018,07,17,01,32,21.30
2018,07,17,01,33,21.20
2018,07,17,01,34,21.20
2018,07,17,01,35,21.20
2018,07,17,01,36,21.20
2018,07,17,01,37,21.20
2018,07,17,01,38,21.10
2018,07,17,01,39,21.10
2018,07,17,01,40,21.10
2018,07,17,01,41,21.10
2018,07,17,01,42,21.00
2018,07,17,01,43,21.00
2018,07,17,01,44,21.00
2018,07,17,01,45,20.90
2018,07,17,01,46,20.90
2018,07,17,01,47,20.90
2018,07,17,01,48,20.90
2018,07,17,01,49,20.80
2018,07,17,01,50,20.80
2018,07,17,01,51,20.80
2018,07,17,01,52,20.80
2018,07,17,01,53,20.80
2018,07,17,01,54,20.80
2018,07,17,01,55,20.70
2018,07,17,01,56,20.70
2018,07,17,01,57,20.70
2018,07,17,01,58,20.70
2018,07,17,01,59,20.70
2018,07,17,02,00,20.60
2018,07,17,02,01,20.60
2018,07,17,02,02,20.60
2018,07,17,02,03,20.60
2018,07,17,02,04,20.50
2018,07,17,02,05,20.50
2018,07,17,02,06,20.50
2018,07,17,02,07,20.40
2018,07,17,02,08,20.40
2018,07,17,02,09,20.40
2018,07,17,02,10,20.40
2018,07,17,02,11,20.30
2018,07,17,02,12,20.30
2018,07,17,02,13,20.30
2018,07,17,02,14,20.30
2018,07,17,02,15,20.30
2018,07,17,02,16,20.20
2018,07,17,02,17,20.20
2018,07,17,02,18,20.20
2018,07,17,02,19,20.20
2018,07,17,02,20,20.10
2018,07,17,02,21,20.10
2018,07,17,02,22,20.10
2018,07,17,02,23,20.00
2018,07,17,02,24,20.00
2018,07,17,02,25,20.00
2018,07,17,02,26,19.90
2018,07,17,02,27,19.90
2018,07,17,02,28,19.90
2018,07,17,02,29,19.90
2018,07,17,02,30,19.80
2018,07,17,02,31,19.80
2018,07,17,02,32,19.80
2018,07,17,02,33,19.80
2018,07,17,02,34,19.70
2018,07,17,02,35,19.70
2018,07,17,02,36,19.70
2018,07,17,02,37,19.60
2018,07,17,02,38,19.60
2018,07,17,02,39,19.60
2018,07,17,02,40,19.50
2018,07,17,02,41,19.50
2018,07,17,02,42,19.50
2018,07,17,02,43,19.50
2018,07,17,02,44,19.40
2018,07,17,02,45,19.40
2018,07,17,02,46,19.40
2018,07,17,02,47,19.50
2018,07,17,02,48,19.50
2018,07,17,02,49,19.50
2018,07,17,02,50,19.50
2018,07,17,02,51,19.50
2018,07,17,02,52,19.50
2018,07,17,02,53,19.50
2018,07,17,02,54,19.50
2018,07,17,02,55,19.50
2018,07,17,02,56,19.50
2018,07,17,02,57,19.40
2018,07,17,02,58,19.50
2018,07,17,02,59,19.50
2018,07,17,03,00,19.50
2018,07,17,03,01,19.60
2018,07,17,03,02,19.60
2018,07,17,03,03,19.60
2018,07,17,03,04,19.60
2018,07,17,03,05,19.70
2018,07,17,03,06,19.70
2018,07,17,03,07,19.70
2018,07,17,03,08,19.70
2018,07,17,03,09,19.70
2018,07,17,03,10,19.80
2018,07,17,03,11,19.80
2018,07,17,03,12,19.80
2018,07,17,03,13,19.90
2018,07,17,03,14,19.90
2018,07,17,03,15,19.90
2018,07,17,03,16,19.90
2018,07,17,03,17,20.00
2018,07,17,03,18,20.00
2018,07,17,03,19,20.00
2018,07,17,03,20,20.00
2018,07,17,03,21,20.00
2018,07,17,03,22,20.00
2018,07,17,03,23,20.00
2018,07,17,03,24,20.00
2018,07,17,03,25,19.90
2018,07,17,03,26,19.90
2018,07,17,03,27,19.90
2018,07,17,03,28,19.90
2018,07,17,03,29,19.90
2018,07,17,03,30,19.90
2018,07,17,03,31,20.00
2018,07,17,03,32,20.00
2018,07,17,03,33,20.00
2018,07,17,03,34,20.10
2018,07,17,03,35,20.10
2018,07,17,03,36,20.20
2018,07,17,03,37,20.20
2018,07,17,03,38,20.30
2018,07,17,03,39,20.30
2018,07,17,03,40,20.30
2018,07,17,03,41,20.30
2018,07,17,03,42,20.30
2018,07,17,03,43,20.30
2018,07,17,03,44,20.30
2018,07,17,03,45,20.30
2018,07,17,03,46,20.30
2018,07,17,03,47,20.30
2018,07,17,03,48,20.30
2018,07,17,03,49,20.30
2018,07,17,03,50,20.30
2018,07,17,03,51,20.30
2018,07,17,03,52,20.30
2018,07,17,03,53,20.30
2018,07,17,03,54,20.30
2018,07,17,03,55,20.30
2018,07,17,03,56,20.30
2018,07,17,03,57,20.30
2018,07,17,03,58,20.30
2018,07,17,03,59,20.30
2018,07,17,04,00,20.30
2018,07,17,04,01,20.30
2018,07,17,04,02,20.30
2018,07,17,04,03,20.30
2018,07,17,04,04,20.30
2018,07,17,04,05,20.30
2018,07,17,04,06,20.20
2018,07,17,04,07,20.20
2018,07,17,04,08,20.20
2018,07,17,04,09,20.20
2018,07,17,04,10,20.20
2018,07,17,04,11,20.20
2018,07,17,04,12,20.20
2018,07,17,04,13,20.20
2018,07,17,04,14,20.20
2018,07,17,04,15,20.20
2018,07,17,04,16,20.10
2018,07,17,04,17,20.10
2018,07,17,04,18,20.10
2018,07,17,04,19,20.10
2018,07,17,04,20,20.10
2018,07,17,04,21,20.10
2018,07,17,04,22,20.00
2018,07,17,04,23,20.00
2018,07,17,04,24,20.00
2018,07,17,04,25,19.90
2018,07,17,04,26,19.90
2018,07,17,04,27,19.90
2018,07,17,04,28,19.80
2018,07,17,04,29,19.80
2018,07,17,04,30,19.70
2018,07,17,04,31,19.70
2018,07,17,04,32,19.60
2018,07,17,04,33,19.60
2018,07,17,04,34,19.50
2018,07,17,04,35,19.40
2018,07,17,04,36,19.40
2018,07,17,04,37,19.40
2018,07,17,04,38,19.30
2018,07,17,04,39,19.30
2018,07,17,04,40,19.30
2018,07,17,04,41,19.30
2018,07,17,04,42,19.20
2018,07,17,04,43,19.20
2018,07,17,04,44,19.20
2018,07,17,04,45,19.20
2018,07,17,04,46,19.10
2018,07,17,04,47,19.10
2018,07,17,04,48,19.10
2018,07,17,04,49,19.00
2018,07,17,04,50,19.00
2018,07,17,04,51,19.00
2018,07,17,04,52,18.90
2018,07,17,04,53,18.90
2018,07,17,04,54,18.90
2018,07,17,04,55,18.80
2018,07,17,04,56,18.80
2018,07,17,04,57,18.80
2018,07,17,04,58,18.80
2018,07,17,04,59,18.80
2018,07,17,05,00,18.70
2018,07,17,05,01,18.70
2018,07,17,05,02,18.70
2018,07,17,05,03,18.70
2018,07,17,05,04,18.70
2018,07,17,05,05,18.70
2018,07,17,05,06,18.70
2018,07,17,05,07,18.70
2018,07,17,05,08,18.70
2018,07,17,05,09,18.70
2018,07,17,05,10,18.70
2018,07,17,05,11,18.70
2018,07,17,05,12,18.70
2018,07,17,05,13,18.70
2018,07,17,05,14,18.70
2018,07,17,05,15,18.70
2018,07,17,05,16,18.70
2018,07,17,05,17,18.70
2018,07,17,05,18,18.70
2018,07,17,05,19,18.70
2018,07,17,05,20,18.70
2018,07,17,05,21,18.70
2018,07,17,05,22,18.70
2018,07,17,05,23,18.70
2018,07,17,05,24,18.80
2018,07,17,05,25,18.80
2018,07,17,05,26,18.80
2018,07,17,05,27,18.70
2018,07,17,05,28,18.70
2018,07,17,05,29,18.70
2018,07,17,05,30,18.70
2018,07,17,05,31,18.70
2018,07,17,05,32,18.70
2018,07,17,05,33,18.60
2018,07,17,05,34,18.60
2018,07,17,05,35,18.60
2018,07,17,05,36,18.60
2018,07,17,05,37,18.60
2018,07,17,05,38,18.50
2018,07,17,05,39,18.50
2018,07,17,05,40,18.50
2018,07,17,05,41,18.50
2018,07,17,05,42,18.40
2018,07,17,05,43,18.40
2018,07,17,05,44,18.40
2018,07,17,05,45,18.40
2018,07,17,05,46,18.40
2018,07,17,05,47,18.30
2018,07,17,05,48,18.30
2018,07,17,05,49,18.30
2018,07,17,05,50,18.30
2018,07,17,05,51,18.30
2018,07,17,05,52,18.30
2018,07,17,05,53,18.30
2018,07,17,05,54,18.20
2018,07,17,05,55,18.20
2018,07,17,05,56,18.20
2018,07,17,05,57,18.20
2018,07,17,05,58,18.20
2018,07,17,05,59,18.20
2018,07,17,06,00,18.20
2018,07,17,06,01,18.20
2018,07,17,06,02,18.20
2018,07,17,06,03,18.20
2018,07,17,06,04,18.20
2018,07,17,06,05,18.20
2018,07,17,06,06,18.20
2018,07,17,06,07,18.20
2018,07,17,06,08,18.10
2018,07,17,06,09,18.20
2018,07,17,06,10,18.10
2018,07,17,06,11,18.10
2018,07,17,06,12,18.10
2018,07,17,06,13,18.10
2018,07,17,06,14,18.10
2018,07,17,06,15,18.10
2018,07,17,06,16,18.10
2018,07,17,06,17,18.10
2018,07,17,06,18,18.10
2018,07,17,06,19,18.10
2018,07,17,06,20,18.10
2018,07,17,06,21,18.10
2018,07,17,06,22,18.10
2018,07,17,06,23,18.10
2018,07,17,06,24,18.10
2018,07,17,06,25,18.20
2018,07,17,06,26,18.20
2018,07,17,06,27,18.20
2018,07,17,06,28,18.20
2018,07,17,06,29,18.20
2018,07,17,06,30,18.20
2018,07,17,06,31,18.20
2018,07,17,06,32,18.20
2018,07,17,06,33,18.20
2018,07,17,06,34,18.20
2018,07,17,06,35,18.20
2018,07,17,06,36,18.30
2018,07,17,06,37,18.30
2018,07,17,06,38,18.30
2018,07,17,06,39,18.30
2018,07,17,06,40,18.30
2018,07,17,06,41,18.30
2018,07,17,06,42,18.30
2018,07,17,06,43,18.40
2018,07,17,06,44,18.40
2018,07,17,06,45,18.40
2018,07,17,06,46,18.40
2018,07,17,06,47,18.40
2018,07,17,06,48,18.50
2018,07,17,06,49,18.50
2018,07,17,06,50,18.60
2018,07,17,06,51,18.60
2018,07,17,06,52,18.60
2018,07,17,06,53,18.70
2018,07,17,06,54,18.70
2018,07,17,06,55,18.70
2018,07,17,06,56,18.70
2018,07,17,06,57,18.80
2018,07,17,06,58,18.80
2018,07,17,06,59,18.80
2018,07,17,07,00,18.80
2018,07,17,07,01,18.90
2018,07,17,07,02,18.90
2018,07,17,07,03,18.90
2018,07,17,07,04,18.90
2018,07,17,07,05,18.90
2018,07,17,07,06,18.90
2018,07,17,07,07,18.90
2018,07,17,07,08,18.90
2018,07,17,07,09,18.90
2018,07,17,07,10,19.00
2018,07,17,07,11,19.00
2018,07,17,07,12,19.00
2018,07,17,07,13,19.10
2018,07,17,07,14,19.10
2018,07,17,07,15,19.10
2018,07,17,07,16,19.10
2018,07,17,07,17,19.10
2018,07,17,07,18,19.20
2018,07,17,07,19,19.20
2018,07,17,07,20,19.20
2018,07,17,07,21,19.30
2018,07,17,07,22,19.30
2018,07,17,07,23,19.40
2018,07,17,07,24,19.40
2018,07,17,07,25,19.40
2018,07,17,07,26,19.40
2018,07,17,07,27,19.50
2018,07,17,07,28,19.50
2018,07,17,07,29,19.50
2018,07,17,07,30,19.60
2018,07,17,07,31,19.60
2018,07,17,07,32,19.60
2018,07,17,07,33,19.60
2018,07,17,07,34,19.60
2018,07,17,07,35,19.70
2018,07,17,07,36,19.70
2018,07,17,07,37,19.70
2018,07,17,07,38,19.70
2018,07,17,07,39,19.80
2018,07,17,07,40,19.80
2018,07,17,07,41,19.80
2018,07,17,07,42,19.80
2018,07,17,07,43,19.80
2018,07,17,07,44,19.90
2018,07,17,07,45,19.90
2018,07,17,07,46,19.90
2018,07,17,07,47,20.00
2018,07,17,07,48,20.00
2018,07,17,07,49,20.00
2018,07,17,07,50,20.00
2018,07,17,07,51,20.00
2018,07,17,07,52,20.10
2018,07,17,07,53,20.10
2018,07,17,07,54,20.20
2018,07,17,07,55,20.20
2018,07,17,07,56,20.30
2018,07,17,07,57,20.30
2018,07,17,07,58,20.30
2018,07,17,07,59,20.30
2018,07,17,08,00,20.30
2018,07,17,08,01,20.30
2018,07,17,08,02,20.30
2018,07,17,08,03,20.30
2018,07,17,08,04,20.30
2018,07,17,08,05,20.30
2018,07,17,08,06,20.30
2018,07,17,08,07,20.30
2018,07,17,08,08,20.20
2018,07,17,08,09,20.20
2018,07,17,08,10,20.20
2018,07,17,08,11,20.20
2018,07,17,08,12,20.20
2018,07,17,08,13,20.30
2018,07,17,08,14,20.30
2018,07,17,08,15,20.40
2018,07,17,08,16,20.40
2018,07,17,08,17,20.50
2018,07,17,08,18,20.60
2018,07,17,08,19,20.60
2018,07,17,08,20,20.70
2018,07,17,08,21,20.80
2018,07,17,08,22,20.80
2018,07,17,08,23,20.90
2018,07,17,08,24,20.90
2018,07,17,08,25,20.90
2018,07,17,08,26,20.90
2018,07,17,08,27,20.80
2018,07,17,08,28,20.70
2018,07,17,08,29,20.60
2018,07,17,08,30,20.50
2018,07,17,08,31,20.40
2018,07,17,08,32,20.30
2018,07,17,08,33,20.30
2018,07,17,08,34,20.20
2018,07,17,08,35,20.20
2018,07,17,08,36,20.10
2018,07,17,08,37,20.10
2018,07,17,08,38,20.00
2018,07,17,08,39,20.00
2018,07,17,08,40,19.90
2018,07,17,08,41,19.90
2018,07,17,08,42,19.80
2018,07,17,08,43,19.70
2018,07,17,08,44,19.70
2018,07,17,08,45,19.70
2018,07,17,08,46,19.60
2018,07,17,08,47,19.60
2018,07,17,08,48,19.60
2018,07,17,08,49,19.60
2018,07,17,08,50,19.60
2018,07,17,08,51,19.60
2018,07,17,08,52,19.60
2018,07,17,08,53,19.70
2018,07,17,08,54,19.70
2018,07,17,08,55,19.70
2018,07,17,08,56,19.70
2018,07,17,08,57,19.70
2018,07,17,08,58,19.70
2018,07,17,08,59,19.60
2018,07,17,09,00,19.60
2018,07,17,09,01,19.50
2018,07,17,09,02,19.50
2018,07,17,09,03,19.50
2018,07,17,09,04,19.60
2018,07,17,09,05,19.50
2018,07,17,09,06,19.50
2018,07,17,09,07,19.50
2018,07,17,09,08,19.50
2018,07,17,09,09,19.50
2018,07,17,09,10,19.60
2018,07,17,09,11,19.60
2018,07,17,09,12,19.60
2018,07,17,09,13,19.60
2018,07,17,09,14,19.60
2018,07,17,09,15,19.60
2018,07,17,09,16,19.50
2018,07,17,09,17,19.50
2018,07,17,09,18,19.40
2018,07,17,09,19,19.40
2018,07,17,09,20,19.40
2018,07,17,09,21,19.40
2018,07,17,09,22,19.50
2018,07,17,09,23,19.50
2018,07,17,09,24,19.60
2018,07,17,09,25,19.60
2018,07,17,09,26,19.70
2018,07,17,09,27,19.70
2018,07,17,09,28,19.80
2018,07,17,09,29,19.80
2018,07,17,09,30,19.90
2018,07,17,09,31,19.90
2018,07,17,09,32,19.90
2018,07,17,09,33,19.90
2018,07,17,09,34,19.90
2018,07,17,09,35,19.90
2018,07,17,09,36,19.90
2018,07,17,09,37,19.90
2018,07,17,09,38,19.80
2018,07,17,09,39,19.90
2018,07,17,09,40,19.90
2018,07,17,09,41,20.00
2018,07,17,09,42,20.00
2018,07,17,09,43,20.00
2018,07,17,09,44,20.00
2018,07,17,09,45,20.00
2018,07,17,09,46,20.00
2018,07,17,09,47,20.00
2018,07,17,09,48,20.00
2018,07,17,09,49,20.00
2018,07,17,09,50,20.00
2018,07,17,09,51,20.00
2018,07,17,09,52,20.00
2018,07,17,09,53,20.10
2018,07,17,09,54,20.10
2018,07,17,09,55,20.10
2018,07,17,09,56,20.10
2018,07,17,09,57,20.20
2018,07,17,09,58,20.20
2018,07,17,09,59,20.30
2018,07,17,10,00,20.40
2018,07,17,10,01,20.60
2018,07,17,10,02,20.70
2018,07,17,10,03,20.80
2018,07,17,10,04,20.90
2018,07,17,10,05,21.00
2018,07,17,10,06,21.10
2018,07,17,10,07,21.10
2018,07,17,10,08,21.00
2018,07,17,10,09,21.00
2018,07,17,10,10,20.90
2018,07,17,10,11,20.90
2018,07,17,10,12,20.90
2018,07,17,10,13,20.90
2018,07,17,10,14,20.90
2018,07,17,10,15,20.90
2018,07,17,10,16,21.00
2018,07,17,10,17,21.10
2018,07,17,10,18,21.10
2018,07,17,10,19,21.10
2018,07,17,10,20,21.00
2018,07,17,10,21,20.90
2018,07,17,10,22,20.90
2018,07,17,10,23,20.90
2018,07,17,10,24,20.90
2018,07,17,10,25,20.80
2018,07,17,10,26,20.80
2018,07,17,10,27,20.80
2018,07,17,10,28,20.80
2018,07,17,10,29,20.80
2018,07,17,10,30,21.00
2018,07,17,10,31,21.10
2018,07,17,10,32,21.10
2018,07,17,10,33,21.10
2018,07,17,10,34,21.20
2018,07,17,10,35,21.20
2018,07,17,10,36,21.20
2018,07,17,10,37,21.20
2018,07,17,10,38,21.20
2018,07,17,10,39,21.30
2018,07,17,10,40,21.40
2018,07,17,10,41,21.40
2018,07,17,10,42,21.40
2018,07,17,10,43,21.40
2018,07,17,10,44,21.40
2018,07,17,10,45,21.30
2018,07,17,10,46,21.30
2018,07,17,10,47,21.30
2018,07,17,10,48,21.40
2018,07,17,10,49,21.40
2018,07,17,10,50,21.50
2018,07,17,10,51,21.60
2018,07,17,10,52,21.60
2018,07,17,10,53,21.70
2018,07,17,10,54,21.60
2018,07,17,10,55,21.50
2018,07,17,10,56,21.40
2018,07,17,10,57,21.30
2018,07,17,10,58,21.30
2018,07,17,10,59,21.30
2018,07,17,11,00,21.40
2018,07,17,11,01,21.40
2018,07,17,11,02,21.40
2018,07,17,11,03,21.40
2018,07,17,11,04,21.20
2018,07,17,11,05,21.20
2018,07,17,11,06,21.20
2018,07,17,11,07,21.20
2018,07,17,11,08,21.30
2018,07,17,11,09,21.30
2018,07,17,11,10,21.40
2018,07,17,11,11,21.40
2018,07,17,11,12,21.50
2018,07,17,11,13,21.40
2018,07,17,11,14,21.40
2018,07,17,11,15,21.30
2018,07,17,11,16,21.40
2018,07,17,11,17,21.40
2018,07,17,11,18,21.50
2018,07,17,11,19,21.60
2018,07,17,11,20,21.70
2018,07,17,11,21,21.80
2018,07,17,11,22,21.80
2018,07,17,11,23,21.80
2018,07,17,11,24,21.80
2018,07,17,11,25,21.90
2018,07,17,11,26,22.00
2018,07,17,11,27,22.00
2018,07,17,11,28,22.00
2018,07,17,11,29,22.00
2018,07,17,11,30,22.00
2018,07,17,11,31,21.90
2018,07,17,11,32,21.90
2018,07,17,11,33,21.90
2018,07,17,11,34,21.90
2018,07,17,11,35,21.80
2018,07,17,11,36,21.70
2018,07,17,11,37,21.70
2018,07,17,11,38,21.80
2018,07,17,11,39,21.80
2018,07,17,11,40,21.90
2018,07,17,11,41,21.90
2018,07,17,11,42,22.00
2018,07,17,11,43,22.00
2018,07,17,11,44,22.00
2018,07,17,11,45,22.10
2018,07,17,11,46,22.20
2018,07,17,11,47,22.30
2018,07,17,11,48,22.30
2018,07,17,11,49,22.30
2018,07,17,11,50,22.30
2018,07,17,11,51,22.30
2018,07,17,11,52,22.30
2018,07,17,11,53,22.40
2018,07,17,11,54,22.40
2018,07,17,11,55,22.40
2018,07,17,11,56,22.40
2018,07,17,11,57,22.40
2018,07,17,11,58,22.50
2018,07,17,11,59,22.50
2018,07,17,12,00,22.50
2018,07,17,12,01,22.50
2018,07,17,12,02,22.40
2018,07,17,12,03,22.40
2018,07,17,12,04,22.30
2018,07,17,12,05,22.30
2018,07,17,12,06,22.30
2018,07,17,12,07,22.30
2018,07,17,12,08,22.30
2018,07,17,12,09,22.30
2018,07,17,12,10,22.30
2018,07,17,12,11,22.30
2018,07,17,12,12,22.30
2018,07,17,12,13,22.40
2018,07,17,12,14,22.40
2018,07,17,12,15,22.40
2018,07,17,12,16,22.50
2018,07,17,12,17,22.60
2018,07,17,12,18,22.60
2018,07,17,12,19,22.60
2018,07,17,12,20,22.60
2018,07,17,12,21,22.60
2018,07,17,12,22,22.70
2018,07,17,12,23,22.70
2018,07,17,12,24,22.80
2018,07,17,12,25,22.80
2018,07,17,12,26,22.70
2018,07,17,12,27,22.60
2018,07,17,12,28,22.60
2018,07,17,12,29,22.50
2018,07,17,12,30,22.60
2018,07,17,12,31,22.70
2018,07,17,12,32,22.70
2018,07,17,12,33,22.80
2018,07,17,12,34,22.80
2018,07,17,12,35,22.90
2018,07,17,12,36,22.90
2018,07,17,12,37,22.80
2018,07,17,12,38,22.80
2018,07,17,12,39,22.90
2018,07,17,12,40,23.00
2018,07,17,12,41,23.10
2018,07,17,12,42,23.00
2018,07,17,12,43,22.90
2018,07,17,12,44,22.80
2018,07,17,12,45,22.70
2018,07,17,12,46,22.60
2018,07,17,12,47,22.50
2018,07,17,12,48,22.50
2018,07,17,12,49,22.40
2018,07,17,12,50,22.40
2018,07,17,12,51,22.50
2018,07,17,12,52,22.60
2018,07,17,12,53,22.70
2018,07,17,12,54,22.80
2018,07,17,12,55,22.90
2018,07,17,12,56,23.00
2018,07,17,12,57,23.10
2018,07,17,12,58,23.20
2018,07,17,12,59,23.30
2018,07,17,13,00,23.40
2018,07,17,13,01,23.50
2018,07,17,13,02,23.50
2018,07,17,13,03,23.50
2018,07,17,13,04,23.60
2018,07,17,13,05,23.60
2018,07,17,13,06,23.60
2018,07,17,13,07,23.60
2018,07,17,13,08,23.60
2018,07,17,13,09,23.70
2018,07,17,13,10,23.70
2018,07,17,13,11,23.80
2018,07,17,13,12,23.80
2018,07,17,13,13,23.80
2018,07,17,13,14,23.70
2018,07,17,13,15,23.80
2018,07,17,13,16,23.80
2018,07,17,13,17,23.80
2018,07,17,13,18,23.80
2018,07,17,13,19,23.80
2018,07,17,13,20,23.80
2018,07,17,13,21,23.80
2018,07,17,13,22,23.70
2018,07,17,13,23,23.70
2018,07,17,13,24,23.60
2018,07,17,13,25,23.70
2018,07,17,13,26,23.70
2018,07,17,13,27,23.70
2018,07,17,13,28,23.60
2018,07,17,13,29,23.60
2018,07,17,13,30,23.60
2018,07,17,13,31,23.60
2018,07,17,13,32,23.60
2018,07,17,13,33,23.70
2018,07,17,13,34,23.70
2018,07,17,13,35,23.70
2018,07,17,13,36,23.70
2018,07,17,13,37,23.70
2018,07,17,13,38,23.80
2018,07,17,13,39,23.90
2018,07,17,13,40,24.00
2018,07,17,13,41,24.10
2018,07,17,13,42,24.10
2018,07,17,13,43,24.20
2018,07,17,13,44,24.20
2018,07,17,13,45,24.20
2018,07,17,13,46,24.20
2018,07,17,13,47,24.20
2018,07,17,13,48,24.10
2018,07,17,13,49,24.10
2018,07,17,13,50,24.00
2018,07,17,13,51,24.10
2018,07,17,13,52,24.10
2018,07,17,13,53,24.20
2018,07,17,13,54,24.30
2018,07,17,13,55,24.40
2018,07,17,13,56,24.50
2018,07,17,13,57,24.50
2018,07,17,13,58,24.60
2018,07,17,13,59,24.60
2018,07,17,14,00,24.60
2018,07,17,14,01,24.70
2018,07,17,14,02,24.80
2018,07,17,14,03,24.90
2018,07,17,14,04,25.00
2018,07,17,14,05,25.10
2018,07,17,14,06,25.20
2018,07,17,14,07,25.30
2018,07,17,14,08,25.30
2018,07,17,14,09,25.30
2018,07,17,14,10,25.30
2018,07,17,14,11,25.40
2018,07,17,14,12,25.40
2018,07,17,14,13,25.40
2018,07,17,14,14,25.30
2018,07,17,14,15,25.20
2018,07,17,14,16,25.10
2018,07,17,14,17,25.00
2018,07,17,14,18,24.80
2018,07,17,14,19,24.70
2018,07,17,14,20,24.60
2018,07,17,14,21,24.50
2018,07,17,14,22,24.50
2018,07,17,14,23,24.50
2018,07,17,14,24,24.50
2018,07,17,14,25,24.70
2018,07,17,14,26,24.80
2018,07,17,14,27,24.90
2018,07,17,14,28,25.10
2018,07,17,14,29,25.20
2018,07,17,14,30,25.20
2018,07,17,14,31,25.30
2018,07,17,14,32,25.30
2018,07,17,14,33,25.40
2018,07,17,14,34,25.50
2018,07,17,14,35,25.60
2018,07,17,14,36,25.50
2018,07,17,14,37,25.40
2018,07,17,14,38,25.50
2018,07,17,14,39,25.50
2018,07,17,14,40,25.60
2018,07,17,14,41,25.60
2018,07,17,14,42,25.60
2018,07,17,14,43,25.60
2018,07,17,14,44,25.60
2018,07,17,14,45,25.60
2018,07,17,14,46,25.60
2018,07,17,14,47,25.70
2018,07,17,14,48,25.70
2018,07,17,14,49,25.70
2018,07,17,14,50,25.70
2018,07,17,14,51,25.70
2018,07,17,14,52,25.60
2018,07,17,14,53,25.60
2018,07,17,14,54,25.50
2018,07,17,14,55,25.50
2018,07,17,14,56,25.30
2018,07,17,14,57,25.20
2018,07,17,14,58,25.00
2018,07,17,14,59,25.00
2018,07,17,15,00,24.90
2018,07,17,15,01,25.00
2018,07,17,15,02,25.00
2018,07,17,15,03,25.10
2018,07,17,15,04,25.20
2018,07,17,15,05,25.30
2018,07,17,15,06,25.40
2018,07,17,15,07,25.40
2018,07,17,15,08,25.30
2018,07,17,15,09,25.20
2018,07,17,15,10,25.30
2018,07,17,15,11,25.30
2018,07,17,15,12,25.40
2018,07,17,15,13,25.40
2018,07,17,15,14,25.40
2018,07,17,15,15,25.40
2018,07,17,15,16,25.40
2018,07,17,15,17,25.50
2018,07,17,15,18,25.60
2018,07,17,15,19,25.70
2018,07,17,15,20,25.70
2018,07,17,15,21,25.70
2018,07,17,15,22,25.60
2018,07,17,15,23,25.60
2018,07,17,15,24,25.50
2018,07,17,15,25,25.50
2018,07,17,15,26,25.40
2018,07,17,15,27,25.40
2018,07,17,15,28,25.30
2018,07,17,15,29,25.30
2018,07,17,15,30,25.30
2018,07,17,15,31,25.40
2018,07,17,15,32,25.50
2018,07,17,15,33,25.50
2018,07,17,15,34,25.50
2018,07,17,15,35,25.50
2018,07,17,15,36,25.50
2018,07,17,15,37,25.50
2018,07,17,15,38,25.40
2018,07,17,15,39,25.40
2018,07,17,15,40,25.30
2018,07,17,15,41,25.30
2018,07,17,15,42,25.30
2018,07,17,15,43,25.20
2018,07,17,15,44,25.20
2018,07,17,15,45,25.20
2018,07,17,15,46,25.10
2018,07,17,15,47,25.10
2018,07,17,15,48,25.10
2018,07,17,15,49,25.10
2018,07,17,15,50,25.20
2018,07,17,15,51,25.20
2018,07,17,15,52,25.20
2018,07,17,15,53,25.10
2018,07,17,15,54,25.10
2018,07,17,15,55,25.10
2018,07,17,15,56,25.10
2018,07,17,15,57,25.10
2018,07,17,15,58,25.20
2018,07,17,15,59,25.10
2018,07,17,16,00,25.10
2018,07,17,16,01,25.20
2018,07,17,16,02,25.20
2018,07,17,16,03,25.20
2018,07,17,16,04,25.20
2018,07,17,16,05,25.20
2018,07,17,16,06,25.20
2018,07,17,16,07,25.20
2018,07,17,16,08,25.20
2018,07,17,16,09,25.10
2018,07,17,16,10,25.00
2018,07,17,16,11,24.90
2018,07,17,16,12,25.00
2018,07,17,16,13,25.10
2018,07,17,16,14,25.20
2018,07,17,16,15,25.40
2018,07,17,16,16,25.50
2018,07,17,16,17,25.60
2018,07,17,16,18,25.70
2018,07,17,16,19,25.70
2018,07,17,16,20,25.80
2018,07,17,16,21,25.80
2018,07,17,16,22,25.70
2018,07,17,16,23,25.60
2018,07,17,16,24,25.50
2018,07,17,16,25,25.50
2018,07,17,16,26,25.30
2018,07,17,16,27,25.30
2018,07,17,16,28,25.20
2018,07,17,16,29,25.20
2018,07,17,16,30,25.30
2018,07,17,16,31,25.30
2018,07,17,16,32,25.20
2018,07,17,16,33,25.10
2018,07,17,16,34,25.00
2018,07,17,16,35,24.80
2018,07,17,16,36,24.70
2018,07,17,16,37,24.70
2018,07,17,16,38,24.70
2018,07,17,16,39,24.60
2018,07,17,16,40,24.60
2018,07,17,16,41,24.60
2018,07,17,16,42,24.50
2018,07,17,16,43,24.50
2018,07,17,16,44,24.50
2018,07,17,16,45,24.50
2018,07,17,16,46,24.40
2018,07,17,16,47,24.40
2018,07,17,16,48,24.40
2018,07,17,16,49,24.40
2018,07,17,16,50,24.30
2018,07,17,16,51,24.20
2018,07,17,16,52,24.20
2018,07,17,16,53,24.20
2018,07,17,16,54,24.20
2018,07,17,16,55,24.30
2018,07,17,16,56,24.30
2018,07,17,16,57,24.30
2018,07,17,16,58,24.40
2018,07,17,16,59,24.40
2018,07,17,17,00,24.40
2018,07,17,17,01,24.40
2018,07,17,17,02,24.50
2018,07,17,17,03,24.50
2018,07,17,17,04,24.60
2018,07,17,17,05,24.60
2018,07,17,17,06,24.60
2018,07,17,17,07,24.60
2018,07,17,17,08,24.50
2018,07,17,17,09,24.50
2018,07,17,17,10,24.50
2018,07,17,17,11,24.40
2018,07,17,17,12,24.30
2018,07,17,17,13,24.20
2018,07,17,17,14,24.10
2018,07,17,17,15,24.10
2018,07,17,17,16,24.10
2018,07,17,17,17,24.20
2018,07,17,17,18,24.20
2018,07,17,17,19,24.20